User: anonymous   Login
Location: Harwich
(41.7160°N, 69.9939°W)
Time: 01:48:50
(UTC+01:00)
Language:

Hubble Space Telescope - Orbit

View from above orbital plane
View from above orbital plane
View from above satellite
View from above satellite

Ground track
Ground track

The orbit data is extracted from the following two-line orbital elements,

1 20580U 90037B   24059.51089385  .00005669  00000-0  27662-3 0  9995
2 20580  28.4700 359.0234 0002597 281.6405  78.3896 15.16117515660368
Epoch (UTC): 28 February 2024 12:15:41
Eccentricity: 0.0002597
inclination: 28.4700°
perigee height: 516 km
apogee height: 519 km
right ascension of ascending node: 359.0234°
argument of perigee: 281.6405°
revolutions per day: 15.16117515
mean anomaly at epoch: 78.3896°
orbit number at epoch: 66036

The dashed part of the orbit path shows where the satellite is in the earth's shadow,  

DLR